[[{"header":{"parameterUnit":"m.s-1","parameterCategory":1,"la1":30.2991,"la2":30.254,"lo1":-89.0895,"lo2":-89.0444,"dy":0.0017,"dx":0.0017,"nx":28,"ny":28,"refTime":"2024-07-15T09:00:00:Z","depth":0,"parameterNumber":2,"parameterNumberName":"U-component_of_WINDS"},"data":[0,0,0,0,0,0,0,0,0,0,0,0,0,0,0,0,0,0,0,0,0,0,0,0,0,0,0,0,0,0,0,0,0,0,0,0,0,0,0,0,0,0,0,0,0,0,0,0,0,0,0,0,0,0,0,0,0,0,1.0246,1.0247,0,1.0331,1.0332,1.0333,1.0343,1.0342,1.0341,1.0341,1.0434,1.0437,1.044,0,0,0,0,0,0,0,0,0,0,0,0,0,1.0097,1.0099,1.0246,1.0247,1.0248,1.0331,1.0332,1.0333,1.0343,1.0342,1.0341,1.034,1.0433,1.0437,1.0441,0,0,0,0,0,0,0,0,0,0,0,0,0,1.017,1.01,1.0246,1.0263,1.0265,1.0331,1.0332,1.0334,1.0344,1.0342,1.0341,1.034,1.0432,1.0436,1.0441,1.0497,0,0,1.0456,1.0458,0,0,0,0,0,0,0,0,1.0166,1.0175,1.0259,1.0262,1.0265,1.0325,1.0314,1.0389,1.0344,1.0314,1.0341,1.0339,1.0399,1.0407,1.0426,1.0502,1.0506,1.0457,1.046,1.0462,1.0463,0,0,0,0,0,0,0,1.0161,1.0172,1.028,1.0261,1.0264,1.0268,1.0277,1.0328,1.0363,1.0317,1.0317,1.0327,1.04,1.0421,1.0428,1.0507,1.0456,1.0461,1.0464,1.0466,1.0632,1.0634,0,0,0,0,0,0,1.0152,1.0167,1.0277,1.0282,1.0211,1.0272,1.0282,1.0307,1.0362,1.0369,1.0328,1.0327,1.0413,1.0422,1.0431,1.05,1.0462,1.0466,1.0469,1.0631,1.0633,1.0634,0,0,0,0,0,0,1.0148,1.0161,1.0274,1.0225,1.024,1.0275,1.0304,1.0309,1.033,1.0371,1.0378,1.0342,1.0412,1.0424,1.048,1.0503,1.0469,1.0473,1.0629,1.0631,1.0633,1.0638,0,0,0,0,0,0,1.0144,1.016,1.0181,1.0225,1.0242,1.032,1.0305,1.0312,1.0338,1.0337,1.0386,1.0393,1.0412,1.0473,1.0485,1.0509,1.0477,1.0627,1.063,1.0633,1.0636,1.064,1.0643,0,0,0,0,0,1.0139,1.018,1.0182,1.0195,1.0269,1.0321,1.0331,1.035,1.0339,1.0361,1.0387,1.0391,1.0498,1.0478,1.0492,1.0518,1.0626,1.0629,1.0633,1.0634,1.0639,1.0643,0,0,0,0,0,0,1.014,1.0186,1.0189,1.0245,1.0279,1.0323,1.0351,1.0355,1.0394,1.0393,1.0417,1.0428,1.0483,1.0506,1.0483,1.0575,1.0561,1.0568,1.0558,1.0563,1.0566,1.056,1.0481,0,0,0,0,0,1.0146,1.0183,1.0223,1.0269,1.0285,1.0315,1.0339,1.035,1.0387,1.0402,1.0432,1.0469,1.0511,1.0538,1.0579,1.0639,1.065,1.0664,1.0667,1.067,1.0676,1.0708,1.0715,1.0645,1.0645,1.0645,0,0,1.0161,1.0191,1.0213,1.027,1.0297,1.0336,1.0327,1.0369,1.0399,1.0409,1.0463,1.0486,1.0529,1.0586,1.0614,1.0608,1.0697,1.0675,1.0677,1.068,1.0712,1.0719,1.0725,1.0647,1.0647,1.0647,0,0,1.0207,1.0233,1.0274,1.0301,1.0341,1.036,1.037,1.0413,1.0428,1.0482,1.049,1.0526,1.0598,1.0627,1.0652,1.0707,1.0713,1.072,1.074,1.0772,1.0777,1.0782,1.0801,1.0808,1.0725,1.0725,1.0725,0,1.022,1.0277,1.0295,1.0336,1.0361,1.0369,1.0411,1.0437,1.049,1.0508,1.05,1.0589,1.0618,1.0682,1.0695,1.0715,1.0728,1.0715,1.0775,1.078,1.0785,1.0803,1.0811,1.0726,1.0726,1.0726,1.0726,0,1.0292,1.0331,1.036,1.0407,1.0436,1.0477,1.0502,1.0529,1.0538,1.0558,1.0612,1.0648,1.0695,1.0711,1.0722,1.0777,1.0772,1.0769,1.0756,1.0792,1.081,1.0817,1.0727,1.0727,1.0726,1.0726,0,0,1.0342,1.0397,1.0407,1.0428,1.0473,1.0505,1.0547,1.0591,1.0613,1.0649,1.0685,1.0744,1.0741,1.0769,1.0783,1.0811,1.0851,1.0804,1.0806,1.0811,1.0913,1.0915,1.0923,1.0855,1.0856,1.0857,1.091,0,1.0393,1.0465,1.0481,1.0545,1.0581,1.0589,1.0626,1.0658,1.0678,1.0713,1.0736,1.0777,1.077,1.0787,1.0814,1.084,1.0872,1.0837,1.0889,1.0891,1.0878,1.0932,1.0935,1.0982,1.0917,1.0918,1.0919,0,1.0462,1.0496,1.0562,1.06,1.0617,1.0649,1.069,1.0723,1.076,1.0772,1.0802,1.0812,1.0857,1.0841,1.0904,1.0879,1.0902,1.0918,1.092,1.0926,1.0907,1.0939,1.0998,1.1005,1.093,1.0929,1.0929,0,1.0491,1.0554,1.0602,1.062,1.0666,1.0688,1.0709,1.0744,1.0769,1.0805,1.0822,1.0864,1.0887,1.092,1.0942,1.0928,1.1002,1.0988,1.1015,1.1014,1.103,1.1029,1.1093,1.1045,1.1045,1.1045,1.1044,0,1.0546,1.0586,1.0615,1.0644,1.0689,1.0708,1.0753,1.0774,1.0804,1.0838,1.0849,1.0881,1.0908,1.0944,1.0962,1.101,1.1021,1.1033,1.1037,1.1032,1.103,1.1047,1.1044,1.1047,1.1046,1.1046,1.1045,0,1.0586,1.0607,1.0659,1.0697,1.0708,1.074,1.0773,1.0802,1.0822,1.0865,1.0876,1.0907,1.095,1.0974,1.103,1.1041,1.1095,1.1098,1.1082,1.1084,1.1108,1.1105,1.1186,1.1197,1.1141,1.1142,1.1142,0,1.062,1.065,1.0691,1.0713,1.0734,1.077,1.0795,1.0815,1.084,1.0883,1.0907,1.095,1.0985,1.1054,1.1082,1.1124,1.1128,1.1153,1.1135,1.1128,1.1128,1.1125,1.1128,1.1156,1.1157,1.1157,1.1158,0,1.0677,1.0685,1.0719,1.0757,1.0786,1.0817,1.0848,1.0866,1.0892,1.092,1.0962,1.099,1.1044,1.1087,1.113,1.1153,1.116,1.1163,1.1171,1.1166,1.1155,1.1161,1.109,1.1161,1.1161,1.1161,1.116,1.116,1.0715,1.0742,1.0774,1.0812,1.0836,1.0865,1.0893,1.0915,1.095,1.0995,1.1005,1.1049,1.1085,1.1144,1.1167,1.1203,1.1199,1.1211,1.1214,1.1217,1.1217,1.1149,1.1212,1.1212,1.1212,1.1211,1.1211,0,1.0772,1.0792,1.0827,1.0868,1.0898,1.0899,1.0933,1.0958,1.0997,1.1028,1.1062,1.1111,1.1151,1.1182,1.1224,1.1247,1.1251,1.1258,1.1256,1.1261,1.1219,1.1207,1.1254,1.1254,1.1254,1.1254,1.1254,1.1254,1.0805,1.085,1.0862,1.092,1.0941,1.0983,1.1002,1.1029,1.1053,1.1106,1.1139,1.1158,1.119,1.1234,1.1271,1.128,1.1295,1.13,1.1309,1.1269,1.1264,1.126,1.1249,1.1303,1.1304,1.1348,1.1349,1.1349]},{"header":{"parameterUnit":"m.s-1","parameterCategory":1,"la1":30.2991,"la2":30.254,"lo1":-89.0895,"lo2":-89.0444,"dy":0.0017,"dx":0.0017,"nx":28,"ny":28,"refTime":"2024-07-15T09:00:00:Z","depth":0,"parameterNumber":3,"parameterNumberName":"V-component_of_WINDS"},"data":[0,0,0,0,0,0,0,0,0,0,0,0,0,0,0,0,0,0,0,0,0,0,0,0,0,0,0,0,0,0,0,0,0,0,0,0,0,0,0,0,0,0,0,0,0,0,0,0,0,0,0,0,0,0,0,0,0,0,3.1378,3.1378,0,3.1357,3.1357,3.1357,3.1372,3.1373,3.1373,3.1374,3.1348,3.1346,3.1345,0,0,0,0,0,0,0,0,0,0,0,0,0,3.1426,3.1425,3.1378,3.1378,3.1378,3.1357,3.1357,3.1357,3.1372,3.1373,3.1374,3.1374,3.1348,3.1347,3.1345,0,0,0,0,0,0,0,0,0,0,0,0,0,3.1405,3.1425,3.1378,3.1383,3.1383,3.1357,3.1357,3.1357,3.1372,3.1373,3.1374,3.1375,3.1349,3.1347,3.1345,3.1312,0,0,3.1339,3.1338,0,0,0,0,0,0,0,0,3.1406,3.1403,3.1382,3.1382,3.1383,3.1368,3.1364,3.1341,3.1371,3.1376,3.1374,3.1375,3.1353,3.1351,3.1345,3.131,3.1309,3.1338,3.1337,3.1336,3.1336,0,0,0,0,0,0,0,3.1408,3.1404,3.137,3.1382,3.1382,3.1384,3.1382,3.136,3.1359,3.1376,3.1377,3.1374,3.1354,3.1347,3.1344,3.1309,3.1338,3.1337,3.1335,3.1335,3.1244,3.1243,0,0,0,0,0,0,3.1409,3.1405,3.137,3.1369,3.1397,3.1383,3.1381,3.1372,3.1359,3.1358,3.1373,3.1375,3.135,3.1347,3.1343,3.1302,3.1336,3.1334,3.1333,3.1245,3.1244,3.1242,0,0,0,0,0,0,3.141,3.1406,3.1371,3.1388,3.1383,3.1381,3.1371,3.1371,3.1364,3.1358,3.1357,3.1367,3.135,3.1346,3.1319,3.1301,3.1334,3.1332,3.1246,3.1245,3.1243,3.122,0,0,0,0,0,0,3.1412,3.1406,3.1395,3.1387,3.1382,3.1349,3.137,3.137,3.1361,3.1363,3.1351,3.135,3.1351,3.1322,3.1317,3.1299,3.133,3.1248,3.1246,3.1244,3.1222,3.1218,3.1214,0,0,0,0,0,3.1413,3.1389,3.1394,3.139,3.1368,3.1348,3.1345,3.1348,3.136,3.1347,3.1343,3.1351,3.1305,3.1319,3.1314,3.1295,3.1249,3.1246,3.1244,3.1224,3.1219,3.1214,0,0,0,0,0,0,3.1393,3.1388,3.1394,3.1367,3.1358,3.1351,3.1335,3.1342,3.1328,3.133,3.1332,3.133,3.1301,3.1296,3.1312,3.1261,3.1278,3.1274,3.1266,3.126,3.1256,3.1257,3.1328,0,0,0,0,0,3.1386,3.1372,3.1367,3.1343,3.1339,3.1338,3.1329,3.1332,3.1322,3.1318,3.1312,3.13,3.1283,3.1272,3.1256,3.1222,3.1218,3.1206,3.1202,3.1199,3.1194,3.1174,3.1168,3.1233,3.1233,3.1233,0,0,3.137,3.1365,3.1356,3.1339,3.1333,3.1315,3.1334,3.1316,3.1303,3.1314,3.1288,3.1283,3.1271,3.124,3.1226,3.1234,3.1176,3.1195,3.1192,3.119,3.1171,3.1164,3.1159,3.1232,3.1232,3.1232,0,0,3.1332,3.1328,3.1307,3.13,3.1291,3.129,3.1285,3.1277,3.1274,3.1249,3.1257,3.124,3.1211,3.1201,3.1192,3.115,3.1155,3.1144,3.1121,3.1101,3.1096,3.1091,3.1074,3.1068,3.1141,3.1141,3.1141,0,3.1313,3.129,3.1295,3.1276,3.1267,3.1279,3.1256,3.1248,3.1233,3.1226,3.1236,3.1199,3.1192,3.1158,3.1147,3.114,3.1133,3.1145,3.1097,3.1092,3.1088,3.1071,3.1065,3.1139,3.1139,3.114,3.114,0,3.1265,3.1249,3.1233,3.1219,3.1209,3.1188,3.1188,3.1177,3.118,3.1178,3.115,3.1142,3.1123,3.1116,3.1119,3.1081,3.1087,3.1097,3.1114,3.108,3.1064,3.1058,3.1137,3.1138,3.1138,3.1139,0,0,3.1213,3.1203,3.1197,3.119,3.118,3.1166,3.1145,3.1129,3.1117,3.1107,3.1087,3.1062,3.1071,3.1061,3.1063,3.1045,3.1009,3.1057,3.1057,3.1047,3.0965,3.0956,3.0949,3.1014,3.1013,3.1012,3.0965,0,3.1173,3.1138,3.1142,3.1107,3.1091,3.1101,3.1082,3.1073,3.107,3.1054,3.105,3.1031,3.1046,3.1039,3.1023,3.1017,3.0992,3.1021,3.0993,3.0992,3.0994,3.0941,3.0932,3.0888,3.0959,3.0958,3.0957,0,3.1122,3.111,3.1074,3.1065,3.1058,3.1042,3.1026,3.1011,3.1,3.0999,3.0987,3.0992,3.0968,3.0987,3.0953,3.0972,3.0961,3.0956,3.0954,3.095,3.0971,3.0933,3.0874,3.0867,3.0948,3.0949,3.095,0,3.1085,3.106,3.1035,3.1029,3.1019,3.1006,3.1001,3.0991,3.098,3.0966,3.0959,3.0941,3.0931,3.0916,3.0915,3.093,3.0879,3.0899,3.0876,3.0875,3.0863,3.0863,3.08,3.0859,3.0859,3.086,3.086,0,3.1038,3.1015,3.1018,3.1002,3.0976,3.098,3.0953,3.0949,3.094,3.0922,3.093,3.0912,3.0913,3.0894,3.0893,3.0863,3.0859,3.0856,3.0855,3.0854,3.0854,3.0845,3.0847,3.0858,3.0858,3.0859,3.0859,0,3.0992,3.0993,3.0966,3.0959,3.0956,3.0937,3.093,3.0914,3.0912,3.0889,3.0883,3.0879,3.0858,3.0856,3.083,3.0829,3.0793,3.0797,3.0797,3.0797,3.0772,3.0774,3.0699,3.0688,3.0757,3.0756,3.0756,0,3.0961,3.0944,3.0935,3.0924,3.0919,3.0901,3.0891,3.0894,3.0882,3.0867,3.0852,3.0832,3.0815,3.078,3.0773,3.0753,3.0755,3.073,3.0752,3.0751,3.0752,3.0752,3.0749,3.0725,3.0725,3.0724,3.0724,0,3.0906,3.0907,3.0893,3.0878,3.0865,3.0853,3.0842,3.0832,3.0833,3.0819,3.0798,3.0785,3.076,3.0738,3.0718,3.0711,3.0716,3.0717,3.071,3.0707,3.0707,3.0705,3.0783,3.0718,3.0719,3.0719,3.072,3.072,3.0865,3.0849,3.0841,3.0823,3.0815,3.0804,3.0789,3.0785,3.0768,3.0748,3.0751,3.0727,3.0714,3.0688,3.0679,3.0658,3.0666,3.0657,3.0654,3.0651,3.0648,3.0713,3.0655,3.0655,3.0655,3.0655,3.0656,0,3.0808,3.0803,3.0787,3.0772,3.0758,3.0767,3.0754,3.0741,3.072,3.0709,3.0693,3.0667,3.0646,3.0638,3.0617,3.0602,3.0604,3.0596,3.0596,3.0594,3.0643,3.065,3.0595,3.0595,3.0595,3.0595,3.0595,3.0595,3.0777,3.075,3.075,3.0719,3.0714,3.0692,3.0683,3.0672,3.0663,3.0635,3.0618,3.0614,3.0603,3.0581,3.0561,3.0559,3.055,3.054,3.0539,3.0584,3.059,3.0596,3.0603,3.0539,3.0539,3.0491,3.0491,3.049]}]]